Weather History for Lihue, HI

Change the Weather History Date:

Tuesday, August 6, 2013

  Actual Average Record
Temperature  
Mean Temperature 78 °F 80 °F  
Max Temperature 83 °F 85 °F 88 °F (1982)
Min Temperature 72 °F 75 °F 68 °F (1959)
Degree Days  
Heating Degree Days 0 0  
Month to date heating degree days 0 0  
Since 1 June heating degree days 0 0  
Since 1 July heating degree days 0 0  
Cooling Degree Days 13 15  
Month to date cooling degree days 78 89  
Year to date cooling degree days 1923 2161  
Since 1 June cooling degree days 841 922  
Growing Degree Days 28 (Base 50)    
Moisture  
Dew Point 69 °F    
Average Humidity 78    
Maximum Humidity 93    
Minimum Humidity 63    
Precipitation  
Precipitation 0.19 in 0.08 in 5.31 in (1959)
Month to date precipitation 0.36 0.44  
Year to date precipitation 16.82 19.76  
Snow  
Snow 0.00 in - - ()
Month to date snowfall 0.0  
Since 1 June snowfall 0.0  
Since 1 July snowfall 0.0  
Snow Depth 0.00 in    
Sea Level Pressure  
Sea Level Pressure 30.03 in    
Wind  
Wind Speed 13 mph (NE)    
Max Wind Speed 18 mph    
Max Gust Speed 22 mph    
Visibility 10 miles    
Events Rain    
T = Trace of Precipitation, MM = Missing Value Source: NWS Daily Summary

Daily Weather History Graph

Daily Weather History Graph

Search for Another Location

Airport:

Trip Planner

Search our weather history database for the weather conditions in past years. The results will help you decide how hot, cold, wet, or windy it might be!

Date:

Astronomy

Aug. 06, 2013 Rise Set
Actual Time 6:11 AM HST 7:14 PM HST
Civil Twilight 5:48 AM HST 7:37 PM HST
Nautical Twilight 5:20 AM HST 8:05 PM HST
Astronomical Twilight 4:51 AM HST 8:34 PM HST
Moon 6:06 AM HST (8/6) 7:06 PM HST (8/6)
Length of Visible Light 13h 49m
Length of Day
13h 02m
New Moon, 0% of the Moon is Illuminated
Aug 6
New Moon
Aug 14
First Quarter
Aug 20
Full
Aug 27
Last Quarter
Sep 5
New

Hourly Weather History & Observations

Time (HST) Temp. Heat Index Dew Point Humidity Pressure Visibility Wind Dir Wind Speed Gust Speed Precip Events Conditions
12:53 AM 77.0 °F - 66.9 °F 71% 30.03 in 10.0 mi ENE 10.4 mph - N/A   Overcast
1:53 AM 73.0 °F - 69.1 °F 87% 30.02 in 10.0 mi NNE 5.8 mph - 0.00 in Rain Light Rain
2:14 AM 73.4 °F - 71.6 °F 94% 30.02 in 5.0 mi ESE 16.1 mph - 0.00 in Rain Rain
2:53 AM 73.0 °F - 71.1 °F 93% 30.01 in 10.0 mi NNE 11.5 mph - 0.19 in   Overcast
3:26 AM 73.4 °F - 71.6 °F 94% 30.01 in 10.0 mi NE 8.1 mph - N/A   Overcast
3:45 AM 75.2 °F - 71.6 °F 89% 30.01 in 10.0 mi ENE 13.8 mph - N/A   Overcast
3:53 AM 75.0 °F - 70.0 °F 84% 30.00 in 10.0 mi East 15.0 mph - N/A   Overcast
4:53 AM 75.0 °F - 69.1 °F 82% 30.01 in 10.0 mi ENE 12.7 mph - N/A   Overcast
5:53 AM 75.0 °F - 69.1 °F 82% 30.01 in 10.0 mi ENE 13.8 mph - N/A   Scattered Clouds
6:53 AM 75.9 °F - 69.1 °F 79% 30.03 in 10.0 mi ENE 13.8 mph - N/A   Scattered Clouds
7:53 AM 78.1 °F - 69.1 °F 74% 30.04 in 10.0 mi ENE 12.7 mph - N/A   Scattered Clouds
8:53 AM 79.0 °F - 69.1 °F 72% 30.05 in 10.0 mi ENE 12.7 mph - N/A   Scattered Clouds
9:53 AM 80.1 °F 82.9 °F 69.1 °F 69% 30.06 in 10.0 mi ENE 12.7 mph - N/A   Partly Cloudy
10:53 AM 82.0 °F 85.5 °F 69.1 °F 65% 30.06 in 10.0 mi ENE 15.0 mph - N/A   Partly Cloudy
11:53 AM 82.0 °F 85.5 °F 69.1 °F 65% 30.06 in 10.0 mi NE 12.7 mph - N/A   Partly Cloudy
12:53 PM 82.0 °F 84.9 °F 68.0 °F 62% 30.04 in 10.0 mi ENE 12.7 mph - N/A   Partly Cloudy
1:53 PM 82.0 °F 85.5 °F 69.1 °F 65% 30.03 in 10.0 mi NE 15.0 mph - N/A   Partly Cloudy
2:53 PM 82.0 °F 84.9 °F 68.0 °F 62% 30.01 in 10.0 mi NE 13.8 mph - N/A   Clear
3:53 PM 81.0 °F 84.1 °F 69.1 °F 67% 30.01 in 10.0 mi NE 15.0 mph - N/A   Clear
4:53 PM 81.0 °F 84.1 °F 69.1 °F 67% 30.00 in 10.0 mi NE 13.8 mph - N/A   Partly Cloudy
5:53 PM 79.0 °F - 69.1 °F 72% 30.01 in 10.0 mi NE 13.8 mph - N/A   Partly Cloudy
6:53 PM 77.0 °F - 69.1 °F 76% 30.03 in 10.0 mi NE 15.0 mph - N/A   Scattered Clouds
7:53 PM 75.9 °F - 70.0 °F 82% 30.04 in 10.0 mi NE 15.0 mph - N/A   Partly Cloudy
8:53 PM 75.9 °F - 68.0 °F 76% 30.05 in 10.0 mi NE 11.5 mph - N/A   Partly Cloudy
9:53 PM 75.9 °F - 69.1 °F 79% 30.06 in 10.0 mi ENE 13.8 mph - N/A   Partly Cloudy
10:53 PM 75.9 °F - 69.1 °F 79% 30.07 in 10.0 mi ENE 12.7 mph - N/A   Partly Cloudy
11:53 PM 75.9 °F - 69.1 °F 79% 30.06 in 10.0 mi ENE 11.5 mph - N/A   Scattered Clouds